Weather reports worldwide

Advertisment
Gourette, France (7775): temperature & dewpoint: 20.03.2019 08:00:00 - 26.03.2019 08:00:00 (CET)Gourette, France (7775): wind speed & gusts: 20.03.2019 08:00:00 - 26.03.2019 08:00:00 (CET)Gourette, France (7775): wind direction: 20.03.2019 08:00:00 - 26.03.2019 08:00:00 (CET)Gourette, France (7775): reduced air pressure: 20.03.2019 08:00:00 - 26.03.2019 08:00:00 (CET)Gourette, France (7775): visibility: 20.03.2019 08:00:00 - 26.03.2019 08:00:00 (CET)Gourette, France (7775): precipitation: 20.03.2019 08:00:00 - 26.03.2019 08:00:00 (CET)
Date & Time tt [°C] td [°C] ff [km/h] ff [kn] fx [km/h] fx [kn] dd ppp [hPa] vv [km] rr [mm]
26.03.2019 08:00:00 - - - - - - - - - -
26.03.2019 07:00:00 6,6 6,0 49 27 95 52 N 1013,3 5 9,5
26.03.2019 06:00:00 8,5 8,1 46 25 79 42 N 1011,8 - 9,3
26.03.2019 05:00:00 11,1 7,4 41 22 69 37 N 1009,6 - 0,0
26.03.2019 04:00:00 12,8 7,9 33 18 50 27 NNE 1008,7 25 0,0
26.03.2019 03:00:00 13,3 7,7 31 17 52 28 N 1008,5 - 0,0
26.03.2019 02:00:00 13,3 7,9 25 13 51 28 N 1009,0 - 0,0
26.03.2019 01:00:00 13,3 8,6 32 17 56 31 N 1008,9 - 0,0
26.03.2019 00:00:00 11,9 8,4 29 16 47 25 N 1008,7 - 0,0
25.03.2019 23:00:00 10,5 8,6 21 11 31 17 N 1008,5 - 0,0
25.03.2019 22:00:00 10,0 7,9 22 12 31 17 N 1008,4 - 0,0
25.03.2019 21:00:00 10,6 9,7 20 11 27 15 N 1008,6 - 0,0
25.03.2019 20:00:00 11,9 11,4 15 8 22 12 N 1009,0 - 0,0
25.03.2019 19:00:00 12,2 11,3 13 7 18 10 N 1009,1 - 0,0
25.03.2019 18:00:00 13,6 11,6 12 7 21 12 N 1009,6 - 0,0
25.03.2019 17:00:00 16,3 11,9 13 7 22 12 NE 1010,2 - 0,0
25.03.2019 16:00:00 17,8 9,9 14 8 22 12 NE 1011,0 - 0,0
25.03.2019 15:00:00 16,8 9,7 10 5 20 11 E 1011,6 - 0,0
25.03.2019 14:00:00 17,9 9,5 11 6 20 11 ESE 1012,5 - 0,0
25.03.2019 13:00:00 17,7 8,3 12 7 22 12 SE 1013,8 - 0,0
25.03.2019 12:00:00 17,7 8,3 13 7 25 14 ESE 1014,9 - 0,0
25.03.2019 11:00:00 18,3 6,2 11 6 22 12 SE 1015,7 - 0,0
25.03.2019 10:00:00 18,1 6,9 11 6 19 10 ESE 1016,1 - 0,0
25.03.2019 09:00:00 17,0 5,3 9 5 18 10 S 1016,5 - 0,0
25.03.2019 08:00:00 14,1 6,2 12 7 19 10 SSW 1016,7 - 0,0
25.03.2019 07:00:00 11,1 4,3 15 8 19 10 SW 1017,1 20 0,0
25.03.2019 06:00:00 11,1 4,8 11 6 13 7 SSW 1017,0 - 0,0
25.03.2019 05:00:00 12,2 4,7 2 1 12 7 NW 1017,4 - 0,0
25.03.2019 04:00:00 12,2 6,9 12 7 18 10 NNW 1017,8 - 0,0
25.03.2019 03:00:00 11,5 6,2 13 7 18 10 N 1018,5 - 0,0
25.03.2019 02:00:00 12,6 5,5 12 7 15 8 N 1018,7 - 0,0
25.03.2019 01:00:00 12,7 6,7 9 5 13 7 N 1018,8 - 0,0
25.03.2019 00:00:00 12,4 1,7 12 7 16 8 NNW 1019,4 - 0,0
24.03.2019 23:00:00 12,6 4,5 10 5 13 7 N 1019,8 - 0,0
24.03.2019 22:00:00 13,9 2,5 14 8 18 10 NNW 1020,0 - 0,0
24.03.2019 21:00:00 14,7 2,6 17 9 21 11 NNW 1020,2 - 0,0
24.03.2019 20:00:00 14,9 4,0 6 3 9 5 SSW 1020,0 - 0,0
24.03.2019 19:00:00 14,9 5,4 8 4 8 5 SSW 1020,0 15 0,0
24.03.2019 18:00:00 16,8 6,9 4 2 8 4 S 1019,9 - 0,0
24.03.2019 17:00:00 18,8 6,6 4 2 10 5 SSE 1020,0 - 0,0
24.03.2019 16:00:00 20,0 5,2 4 2 12 7 ESE 1020,3 20 0,0
24.03.2019 15:00:00 20,5 2,8 6 4 16 9 ESE 1020,7 - 0,0
24.03.2019 14:00:00 20,5 2,3 9 5 16 9 SE 1021,3 - 0,0
24.03.2019 13:00:00 19,8 -0,8 10 6 17 9 E 1022,3 20 0,0
24.03.2019 12:00:00 19,7 2,5 12 6 16 9 E 1022,7 - 0,0
24.03.2019 11:00:00 20,1 1,0 8 4 14 8 E 1022,8 - 0,0
24.03.2019 10:00:00 20,4 0,8 8 4 13 7 NE 1022,8 - 0,0
24.03.2019 09:00:00 19,7 0,7 11 6 16 9 NNE 1022,9 - 0,0
24.03.2019 08:00:00 14,9 -0,8 14 8 22 12 NNW 1022,5 - 0,0
24.03.2019 07:00:00 13,9 -3,0 17 9 22 12 N 1022,2 - 0,0
24.03.2019 06:00:00 15,6 -4,9 3 2 19 11 NW 1021,9 - 0,0
24.03.2019 05:00:00 13,3 -3,5 15 8 20 11 SW 1021,8 - 0,0
24.03.2019 04:00:00 13,5 -3,8 9 5 16 9 SW 1022,1 20 0,0
24.03.2019 03:00:00 12,8 -3,9 11 6 13 7 NNW 1022,3 - 0,0
24.03.2019 02:00:00 13,8 -3,5 9 5 15 8 NNW 1022,4 - 0,0
24.03.2019 01:00:00 12,7 -2,8 7 4 16 8 WNW 1022,6 - 0,0
24.03.2019 00:00:00 12,7 -2,8 13 7 18 10 N 1022,8 - 0,0
23.03.2019 23:00:00 13,1 -2,4 13 7 21 12 N 1022,8 - 0,0
23.03.2019 22:00:00 15,0 -2,0 8 4 14 8 N 1022,6 - 0,0
23.03.2019 21:00:00 17,0 -2,2 8 5 18 10 NW 1022,3 - 0,0
23.03.2019 20:00:00 15,9 1,9 3 1 12 7 S 1022,4 - 0,0
23.03.2019 19:00:00 14,4 3,5 10 6 12 7 WSW 1021,9 - 0,0
23.03.2019 18:00:00 15,0 7,8 0 0 13 7 N 1022,0 - 0,0
23.03.2019 17:00:00 17,8 5,7 9 5 23 12 NNE 1021,8 - 0,0
23.03.2019 16:00:00 21,2 4,7 16 9 31 17 NNE 1021,7 18 0,0
23.03.2019 15:00:00 22,4 1,9 24 13 45 25 NNE 1021,8 - 0,0
23.03.2019 14:00:00 21,2 3,8 31 17 46 25 NNE 1022,2 - 0,0
23.03.2019 13:00:00 20,5 6,4 29 16 46 25 NE 1022,7 - 0,0
23.03.2019 12:00:00 20,7 8,3 24 13 39 21 NNE 1022,9 - 0,0
23.03.2019 11:00:00 20,0 4,9 27 15 43 23 NNE 1023,0 - 0,0
23.03.2019 10:00:00 19,1 3,7 25 14 37 20 NNE 1023,5 15 0,0
23.03.2019 09:00:00 17,9 4,1 22 12 34 19 NNE 1023,6 - 0,0
23.03.2019 08:00:00 14,5 2,1 15 8 32 17 N 1023,5 - 0,0
23.03.2019 07:00:00 13,0 1,3 18 10 31 17 N 1023,5 15 0,0
23.03.2019 06:00:00 11,8 2,3 18 10 23 13 N 1023,3 - 0,0
23.03.2019 05:00:00 13,4 1,1 16 9 27 15 N 1023,4 - 0,0
23.03.2019 04:00:00 13,4 1,7 19 11 31 17 NNW 1023,3 15 0,0
23.03.2019 03:00:00 13,3 1,3 22 12 31 17 N 1023,3 - 0,0
23.03.2019 02:00:00 13,7 1,3 19 11 26 14 N 1023,5 - 0,0
23.03.2019 01:00:00 12,8 2,0 8 4 12 7 N 1024,2 - 0,0
23.03.2019 00:00:00 11,8 3,0 5 3 21 11 WNW 1024,3 - 0,0
22.03.2019 23:00:00 11,0 3,0 10 5 21 11 NW 1024,8 - 0,0
22.03.2019 22:00:00 12,3 3,5 16 9 21 12 NNW 1025,2 - 0,0
22.03.2019 21:00:00 13,3 4,4 7 4 14 8 WSW 1025,0 - 0,0
22.03.2019 20:00:00 13,7 4,6 5 3 11 6 N 1025,0 - 0,0
22.03.2019 19:00:00 13,0 5,2 11 6 14 8 NNW 1024,7 - 0,0
22.03.2019 18:00:00 15,2 4,8 6 3 16 9 N 1024,6 - 0,0
22.03.2019 17:00:00 17,4 3,6 11 6 19 10 NNE 1024,7 - 0,0
22.03.2019 16:00:00 18,6 7,1 13 7 25 13 NNE 1025,2 - 0,0
22.03.2019 15:00:00 19,7 6,1 18 10 26 14 NNE 1025,5 - 0,0
22.03.2019 14:00:00 18,9 7,3 16 9 29 15 NE 1026,0 - 0,0
22.03.2019 13:00:00 19,8 6,2 20 11 32 18 NNE 1026,6 20 0,0
22.03.2019 12:00:00 20,0 7,7 24 13 40 21 NNE 1026,8 - 0,0
22.03.2019 11:00:00 18,9 7,9 25 14 34 18 N 1026,7 - 0,0
22.03.2019 10:00:00 17,8 5,7 22 12 31 17 NNE 1026,8 - 0,0
22.03.2019 09:00:00 16,4 4,1 16 9 23 12 N 1026,9 - 0,0
22.03.2019 08:00:00 13,2 3,8 14 8 23 12 N 1026,8 - 0,0
22.03.2019 07:00:00 11,0 1,2 13 7 27 15 N 1026,4 - 0,0
22.03.2019 06:00:00 10,8 1,9 23 12 37 20 NNW 1025,9 - 0,0
22.03.2019 05:00:00 10,3 3,3 20 11 29 16 N 1026,2 - 0,0
22.03.2019 04:00:00 11,1 4,3 20 11 41 22 N 1025,9 - 0,0
22.03.2019 03:00:00 11,9 3,9 28 15 42 23 N 1025,9 - 0,0
22.03.2019 02:00:00 11,9 3,1 24 13 44 24 N 1025,7 - 0,0
22.03.2019 01:00:00 12,1 3,6 27 15 41 22 N 1025,8 - 0,0
22.03.2019 00:00:00 12,5 1,5 18 10 28 15 N 1025,9 - 0,0
21.03.2019 23:00:00 13,6 1,2 21 11 32 17 NNW 1025,9 - 0,0
21.03.2019 22:00:00 13,7 1,0 21 11 35 19 N 1025,8 - 0,0
21.03.2019 21:00:00 14,5 1,4 21 12 34 19 NNW 1025,7 - 0,0
21.03.2019 20:00:00 14,4 1,3 21 11 32 18 NNW 1025,6 - 0,0
21.03.2019 19:00:00 14,6 1,8 22 12 32 17 NNW 1025,2 20 0,0
21.03.2019 18:00:00 15,8 1,5 21 12 39 21 NNW 1024,9 - 0,0
21.03.2019 17:00:00 16,1 3,8 29 16 50 27 N 1024,9 - 0,0
21.03.2019 16:00:00 16,5 4,2 32 18 59 32 N 1024,9 20 0,0
21.03.2019 15:00:00 16,5 4,8 38 20 58 31 N 1025,1 - 0,0
21.03.2019 14:00:00 16,5 4,8 44 24 63 34 NNE 1025,4 - 0,0
21.03.2019 13:00:00 16,5 4,5 46 25 64 34 NNE 1026,1 20 0,0
21.03.2019 12:00:00 16,3 5,0 44 24 65 35 NNE 1026,5 - 0,0
21.03.2019 11:00:00 15,4 4,7 46 25 64 35 N 1026,7 - 0,0
21.03.2019 10:00:00 14,3 4,3 43 23 61 33 N 1026,7 - 0,0
21.03.2019 09:00:00 12,8 3,4 30 16 58 31 N 1027,0 - 0,0
21.03.2019 08:00:00 11,2 2,5 31 17 54 29 N 1026,4 - 0,0
21.03.2019 07:00:00 9,5 1,6 24 13 43 23 NNW 1026,3 20 0,0
21.03.2019 06:00:00 8,9 0,8 21 11 45 24 N 1026,0 - 0,0
21.03.2019 05:00:00 9,4 0,8 27 15 51 28 N 1026,0 - 0,0
21.03.2019 04:00:00 9,2 -0,2 27 14 49 26 N 1026,0 18 0,0
21.03.2019 03:00:00 9,2 -0,4 24 13 46 25 N 1025,9 - 0,0
21.03.2019 02:00:00 9,0 -0,6 24 13 37 20 N 1026,5 - 0,0
21.03.2019 01:00:00 8,9 -0,2 24 13 40 22 N 1027,0 - 0,0
21.03.2019 00:00:00 9,3 -0,1 23 12 36 19 N 1027,0 - 0,0
20.03.2019 23:00:00 10,4 0,1 24 13 41 22 NNW 1027,4 - 0,0
20.03.2019 22:00:00 10,9 1,1 22 12 47 25 NNW 1027,1 - 0,0
20.03.2019 21:00:00 11,5 1,4 26 14 41 22 NNW 1026,7 - 0,0
20.03.2019 20:00:00 11,3 2,3 21 11 37 20 N 1026,4 - 0,0
20.03.2019 19:00:00 11,8 2,5 24 13 41 22 N 1025,6 20 0,0
20.03.2019 18:00:00 12,8 2,9 29 16 49 27 N 1025,3 - 0,0
20.03.2019 17:00:00 14,7 3,5 31 17 54 29 N 1024,6 - 0,0
20.03.2019 16:00:00 15,7 3,5 34 18 54 29 N 1024,6 - 0,0
20.03.2019 15:00:00 16,2 3,6 33 18 57 31 N 1024,8 - 0,0
20.03.2019 14:00:00 15,7 2,8 37 20 55 30 NNE 1024,9 - 0,0
20.03.2019 13:00:00 15,7 3,8 36 20 57 31 NNE 1025,5 25 0,0
20.03.2019 12:00:00 15,5 3,9 36 20 53 29 NNE 1025,7 - 0,0
20.03.2019 11:00:00 14,8 3,6 38 20 54 29 NNE 1025,5 - 0,0
20.03.2019 10:00:00 14,0 4,6 31 17 52 28 N 1025,4 25 0,0
20.03.2019 09:00:00 12,8 3,7 37 20 50 27 N 1025,1 - 0,0
20.03.2019 08:00:00 11,2 3,5 27 14 41 22 N 1024,6 - 0,0

tt = temperature
td = dewpoint
ff = wind speed
fx = gusts
dd = wind direction
ppp = reduced air pressure
vv = visibility
rr = precipitation

Next stations